Weather Roundup
Issued by NWS Chicago, IL

Home | Current Version | Previous Version | Graphics & Text | Print | Product List | Glossary On
Versions: 1 2 3 4 5 6 7 8 9 10 11 12 13 14 15 16 17 18 19 20 21 22 23 24 25 26 27 28 29 30 31 32 33 34 35 36 37 38 39 40 41 42 43 44 45 46 47 48 49 50
000
NZUS59 KLOT 011606
HRRLOT

CHICAGO AREA WEATHER ROUNDUP
NATIONAL WEATHER SERVICE CHICAGO/ROMEOVILLE IL
1000 AM CST SUN FEB 01 2015

NOTE: "FAIR" INDICATES FEW OR NO CLOUDS BELOW 12,000 FEET WITH NO
SIGNIFICANT WEATHER AND/OR OBSTRUCTIONS TO VISIBILITY.

* THESE STATIONS ARE NOT UNDER NWS QUALITY CONTROL. THEY ALSO MAY NOT
  REPORT WEATHER SUCH AS PRECIPITATION OR FOG.

ILZ005-006-012>014-019>023-011700-
NORTHEAST ILLINOIS

CITY           SKY/WX    TMP DP  RH WIND       PRES   REMARKS
OHARE          HVY SNOW  29  27  92 NE18      29.90F VSB 1/4 WCI  16
MIDWAY         SNOW      33  31  92 NE17      29.88F VSB 1/2 WCI  22
AURORA         SNOW      31  27  85 NE23      29.86F VSB 1/4 WCI  18
LANSING*       SNOW      32  32 100 CALM      29.87F VSB 1/2
JOLIET*        LGT SNOW  32  32  99 NE3       29.85F
WAUKEGAN       SNOW      25  24  96 NE20G28   29.95F VSB<1/4 WCI  11
DUPAGE AIRPORT SNOW      30  27  88 NE21G26   29.87F VSB 1/2 WCI  17
WHEELING       SNOW      29  26  89 NE14G25   29.94F VSB 1/4 WCI  18
KANKAKEE*      SNOW      32  32  99 E7        29.83F VSB 1/2 WCI  26
MORRIS*        SNOW      32  32 100 E6        29.82F VSB 1/2 WCI  27
LEWIS AIRPORT* LGT SNOW  32  32 100 NE9       29.86F VSB 3/4 WCI  24
NORTHERLY IS     N/A     30  29  96 NE23        N/A  WCI  17
$$

WIZ051-052-058>065-066-070>072-011700-
SOUTHEAST WISCONSIN

CITY           SKY/WX    TMP DP  RH WIND       PRES   REMARKS
MILWAUKEE      SNOW      23  19  85 NE29G37   30.03F VSB 1/4 WCI   6
KENOSHA*       SNOW      24  21  88 NE26G36   29.98F VSB 1/4 WCI   8
RACINE*        SNOW      24  20  84 NE24G31   30.02F VSB 1/4 WCI   8
BURLINGTON     LGT SNOW  22  19  91 NE17G30   29.97F WCI   7
WAUKESHA       LGT SNOW  21  19  93 NE12G29   30.01F VSB 1   WCI   9
WEST BEND      LGT SNOW  19  16  86 NE21G29   30.05F WCI   3
$$

INZ001>003-010>013-019-020-011700-
NORTHWEST INDIANA

CITY           SKY/WX    TMP DP  RH WIND       PRES   REMARKS
GARY*          LGT SNOW  34  32  93 CALM      29.87F VSB 1
MICHIGAN CITY* NOT AVBL
RENSSELAER*    NOT AVBL
VALPARAISO     HVY SNOW  32  31  96 E14       29.87F VSB 1/4 WCI  22
$$

LMZ740>746-011700-
SOUTHERN LAKE MICHIGAN

STATION/POSITION TIME  SKY/WX   TEMP WIND        PRES    VSBY
                                AIR  DIR/SP/G
                 (UTC)          (F)  (DEG/KT/KT) (MB)    (MI)
HARRISON CRIB    1600            29   70/ 27/ 31   N/A
BURNHAM HARBOR   1600            30   60/ 22       N/A
CALUMET HARBOR   1600            31   50/ 17/ 22   N/A
BURNS HARBOR     NOT AVBL
MICHIGAN CITY    1600            30   60/ 13/ 17   N/A
$$

ABBREVIATIONS USED IN REMARKS
   TC - TEMPERATURE IN CELSIUS
  WCI - WIND CHILL INDEX
   HX - HEAT INDEX
  VSB - VISIBILITY
$$


USA.gov is the U.S. government's official web portal to all federal, state and local government web resources and services.